This is the latest recevied weather packets stored in our database for station/object IU1OLT-6. If no packets are shown the sender has not sent any weather packets the latest 10 day(s).
| Time | Temp. | Humidity | Pressure | Rain* | Wind** | Luminosity | Snow |
|---|---|---|---|---|---|---|---|
| 1788334163 | 17.78° C | 69% | 1016.1 hPa | 0 mm | - | - | - |
| 1788332339 | 16.67° C | 75% | 1016 hPa | 0 mm | - | - | - |
| 1788331427 | 16.11° C | 79% | 1016 hPa | 0 mm | - | - | - |
| 1788330467 | 16.11° C | 77% | 1016 hPa | 0 mm | - | - | - |
| 1788329507 | 16.11° C | 77% | 1015.9 hPa | 0 mm | - | - | - |
| 1788328595 | 16.11° C | 73% | 1016 hPa | 0 mm | - | - | - |
| 1788327683 | 15.56° C | 78% | 1015.9 hPa | 0 mm | - | - | - |
| 1788326771 | 15° C | 82% | 1015.8 hPa | 0 mm | - | - | - |
| 1788325763 | 14.44° C | 87% | 1015.5 hPa | 0 mm | - | - | - |
| 1788324803 | 13.89° C | 90% | 1015.6 hPa | 0 mm | - | - | - |
| 1788323843 | 13.89° C | 88% | 1015.6 hPa | 0 mm | - | - | - |
| 1788322883 | 13.89° C | 89% | 1015.6 hPa | 0 mm | - | - | - |
| 1788321923 | 13.89° C | 88% | 1015.5 hPa | 0 mm | - | - | - |
| 1788320963 | 13.89° C | 88% | 1015.5 hPa | 0 mm | - | - | - |
| 1788320051 | 14.44° C | 83% | 1015.5 hPa | 0 mm | - | - | - |
| 1788319048 | 14.44° C | 80% | 1015.6 hPa | 0 mm | - | - | - |
| 1788318083 | 15° C | 78% | 1015.7 hPa | 0 mm | - | - | - |
| 1788317123 | 15° C | 78% | 1015.7 hPa | 0 mm | - | - | - |
| 1788316163 | 14.44° C | 79% | 1015.8 hPa | 0 mm | - | - | - |
| 1788315203 | 15° C | 72% | 1015.7 hPa | 0 mm | - | - | - |
| 1788314243 | 15.56° C | 75% | 1015.9 hPa | 0 mm | - | - | - |
| 1788313283 | 15.56° C | 74% | 1015.8 hPa | 0 mm | - | - | - |
| 1788312323 | 15.56° C | 73% | 1015.8 hPa | 0 mm | - | - | - |
| 1788311363 | 15° C | 76% | 1015.6 hPa | 0 mm | - | - | - |
| 1788310403 | 15.56° C | 70% | 1015.7 hPa | 0 mm | - | - | - |
* Rain latest hour (hover to see other rain measurements)
** Current wind speed in m/s (hover to see current wind gust speed)